Slocum Zephyr on mission Arctic PRIZE 3 Piloting

  • Deployed: 2018/04/25 00:00:00 UTC (540 days ago) by Marie Porter
  • Recovered: 2018/06/30 07:00:00 UTC (474 days ago) by esdu
  • Time at Sea: 2 months
  • Profiles Performed: 2990

Near Real-Time Data

 
backscatter
cdom
chlorophyll
conductivity
density
oxygen
par
potential_density
potential_temperature
salinity
sound_velocity
temperature

Communication Log

# Updated Depth Speed Plots
1429762 2018-06-30 07:15:37 UTC (474 days ago)
1427890 2018-06-30 07:14:46 UTC (474 days ago)
1427886 2018-06-30 07:08:42 UTC (474 days ago)
1427884 2018-06-30 07:02:32 UTC (474 days ago)
1427882 2018-06-30 06:56:26 UTC (474 days ago)
1427879 2018-06-30 06:50:21 UTC (474 days ago)
1429761 2018-06-30 06:50:09 UTC (474 days ago)
1427878 2018-06-30 06:44:18 UTC (474 days ago)
1427876 2018-06-30 06:38:13 UTC (474 days ago)
1427872 2018-06-30 06:32:10 UTC (474 days ago)
1429760 2018-06-30 06:27:36 UTC (474 days ago)
1427870 2018-06-30 06:26:04 UTC (474 days ago)
1429759 2018-06-30 06:24:32 UTC (474 days ago)
1429758 2018-06-30 06:23:04 UTC (474 days ago)
1427868 2018-06-30 06:20:00 UTC (474 days ago)
1427866 2018-06-30 06:13:46 UTC (474 days ago)
1427864 2018-06-30 06:07:42 UTC (474 days ago)
1429757 2018-06-30 06:01:44 UTC (474 days ago)
1427861 2018-06-30 06:01:37 UTC (474 days ago)
1427859 2018-06-30 05:55:26 UTC (474 days ago)